Regional Weather Roundup
Issued by NWS Wakefield, VA

Home | Current Version | Previous Version | Graphics & Text | Print | Product List | Glossary On
Versions: 1 2 3 4 5 6 7 8 9 10 11 12 13 14 15 16 17 18 19 20 21 22 23 24 25 26 27 28 29 30 31 32 33 34 35 36 37 38 39 40 41 42 43 44 45 46 47 48 49 50
000
ASUS41 KAKQ 211915
RWRAKQ

REGIONAL WEATHER ROUNDUP
NATIONAL WEATHER SERVICE WAKEFIELD VA
200 PM EST SAT JAN 21 2017

Note: "fair" indicates few or no clouds below 12,000 feet with no
significant weather and/or obstructions to visibility. * = Denotes
station may not report precipitation (e.g., rain,snow,etc.),
thunder or fog.

VAZ042-051-052>054-056-212000-
NORTHERN VIRGINIA

CITY           SKY/WX    TMP DP  RH WIND       PRES   REMARKS
WASH NATIONAL  CLOUDY    50  48  93 SW6       29.85F
DULLES         CLOUDY    49  47  93 S3        29.84S FOG
FORT BELVOIR   CLOUDY    49  48  95 SE3       29.84F
QUANTICO       FOG       48  48 100 SW7       29.86S VSB 1/4
FREDERICKSBRG* CLOUDY    51  51 100 S3        29.84S
STAFFORD*      CLOUDY    50  50 100 CALM      29.88S
WARRENTON      CLOUDY    50  47  88 S3        29.84R
CULPEPER*      CLOUDY    50  49  97 CALM      29.85F
MANASSAS*      CLOUDY   N/A N/A N/A CALM      29.85S FOG
LEESBURG*      CLOUDY    50  50 100 SW5       29.85R
WINCHESTER     CLOUDY    43  43 100 CALM      29.81F FOG
FRONT ROYAL*   FAIR      50  46  87 CALM      29.80F
LURAY*         FAIR      54  52  94 NE3       29.79F
$$

VAZ048-049-060>072-079>083-212000-
CENTRAL AND SOUTH CENTRAL VIRGINIA

CITY           SKY/WX    TMP DP  RH WIND       PRES   REMARKS
RICHMOND       CLOUDY    49  49 100 S5        29.85F FOG
CHESTERFIELD*  CLOUDY    50  36  57 S6        29.86F
PETERSBURG*    LGT RAIN  50  48  93 CALM      29.86F
HANOVER        CLOUDY    50  48  93 S6        29.86F FOG
TAPPAHANNOCK*  CLOUDY    51  51 100 CALM      29.86S FOG
QUINTON*       FOG       48  48 100 CALM      29.85S VSB 3/4
CHARLOTTSVILLE CLOUDY    50  49  96 CALM      29.83F FOG
GORDONSVILLE*  CLOUDY    50  50  99 CALM      29.83F
ORANGE*          N/A     50  50 100 CALM      29.85F
LOUISA*        CLOUDY    54  54 100 S3        29.83S FOG
BUMPASS*       CLOUDY    50  50 100 SW3       29.84S
FARMVILLE*     CLOUDY    55  55 100 CALM      29.81F FOG
CREWE*         CLOUDY    52  52 100 SE3       29.84S
FORT PICKETT*  CLOUDY   N/A N/A N/A SE6       29.84F
CHASE CITY*    CLOUDY    53  51  95 CALM      29.82F
CLARKSVILLE*   CLOUDY    54  54 100 CALM      29.83F
SOUTH HILL*    CLOUDY    51  51 100 S3        29.89F
LAWRENCEVILLE* CLOUDY    51  50  97 CALM      29.84F
EMPORIA*       CLOUDY    50  50 100 CALM      29.87S FOG
$$

VAZ088>098-212000-
SOUTHEAST VIRGINIA

CITY           SKY/WX    TMP DP  RH WIND       PRES   REMARKS
NORFOLK        CLOUDY    53  50  89 S6        29.85F
VIRGINIA BEACH CLOUDY    53  49  86 SE7       29.84F
NORFOLK NAVAL  CLOUDY    53  49  86 S5        29.86F
WEST POINT*    CLOUDY    49  49  99 S5        29.87S
SALUDA*        CLOUDY    47  47 100 E5        29.85F
NEWPORT NEWS   CLOUDY    53  49  86 SW5       29.85F
LANGLEY AFB    CLOUDY    51  51  99 S3        29.85F
FORT EUSTIS    CLOUDY    51  48  89 SE6       29.83S
WILLIAMSBURG*  CLOUDY    52  52 100 CALM      29.86F
HR EXEC AP*    CLOUDY    54  50  87 SW5       29.84F
FRANKLIN*      CLOUDY    53  49  88 CALM      29.86F
US460-WAKEFLD  CLOUDY    53  50  89 CALM      29.85F
$$

VAZ020-022-025-037-045-212000-
WEST CENTRAL AND SOUTHWEST VIRGINIA

CITY           SKY/WX    TMP DP  RH WIND       PRES   REMARKS
STAUNTON*      PTSUNNY   62  51  67 SW3       29.80F
WAYNESBORO*    FAIR      61  49  65 SW8       29.79F
HOT SPRINGS VA CLOUDY    55  45  67 SW9       29.81F
LYNCHBURG      CLOUDY    51  50  96 S5        29.81F FOG
DANVILLE       CLOUDY    55  54  96 VRB3      29.81F
SOUTH BOSTON*  CLOUDY    55  53  95 CALM      29.82F
MARTINSVILLE   CLOUDY    52  51  95 CALM      29.83F FOG
ROANOKE        CLOUDY    52  48  86 CALM      29.82F
BLACKSBURG     CLOUDY    52  50  93 CALM      29.82F
DUBLIN*        MOSUNNY   50  50 100 CALM      29.81F
MARION*        CLOUDY    55  51  86 E3        29.81F
HILLSVILLE*    MOSUNNY   56  51  84 CALM      29.77F
RICHLANDS*     FAIR      58  48  69 CALM      29.78F
WISE*          CLOUDY    57  46  67 S5        29.78F
ABINGDON*      CLOUDY    59  53  78 E3        29.77F
$$

MDZ021>025-VAZ099-100-212000-
SOUTHERN MARYLAND AND THE DELMARVA PENINSULA

CITY           SKY/WX    TMP DP  RH WIND       PRES   REMARKS
PATUXENT RIVER FOG       45  45 100 SE5       29.85S VSB 1/4
BAY BRIDGE APT CLOUDY    46  46 100 S7        29.85S FOG
LEONARDTOWN    CLOUDY    50  46  87 CALM      29.86S
DOVER          CLOUDY    46  46 100 S6        29.84F
GEORGETOWN     CLOUDY    49  47  93 SW5       29.85F
EASTON         CLOUDY    48  46  93 SW7       29.87F FOG
CAMBRIDGE      CLOUDY    45  45 100 S7        29.85S
SALISBURY      CLOUDY    49  47  93 S5        29.85F FOG
OCEAN CITY     FOG       46  46 100 S5        29.86F VSB 1/2
WALLOPS ISLAND FOG       47  47 100 S7        29.86F VSB 3/4
ACCOMACK*      CLOUDY    49  48  95 S6        29.86F
$$

NCZ012>017-030>032-212000-
NORTH CENTRAL AND EASTERN NORTH CAROLINA

CITY           SKY/WX    TMP DP  RH WIND       PRES   REMARKS
ROANOKE RAPIDS CLOUDY    52  52 100 CALM      29.85F FOG
RALEIGH        FOG       53  52  96 E6        29.82F VSB 1/8
ELIZABETH CITY FOG       50  49  96 E6        29.86F VSB 1/4
AHOSKIE*       DRIZZLE   51  50  97 CALM      29.86F
EDENTON*       CLOUDY    55  52  90 CALM      29.87R
CURRITUCK*     CLOUDY    53  53 100 SW3       29.86F
KILL DEVIL HLS NOT AVBL
MANTEO         FOG       50  50 100 W3        29.86F VSB 1/2
CAPE HATTERAS  CLOUDY    61  56  83 CALM      29.84F
TARBORO*       NOT AVBL
GOLDSBORO      CLOUDY    56  56 100 E3        29.81F FOG
WASHINGTON     CLOUDY    58  52  80 SE3         N/A
GREENVILLE     CLOUDY    57  54  88 CALM      29.86F
NEW BERN       CLOUDY    55  50  83 E5        29.84F
WILMINGTON     CLOUDY    67  63  87 SE5       29.82F
$$

VAZ048-212000-
ELSEWHERE

CITY           SKY/WX    TMP DP  RH WIND       PRES   REMARKS
HARRISBURG PA  FOG       43  43 100 CALM      29.82F VSB 1/2
BALTIMORE      CLOUDY    48  48 100 CALM      29.83F FOG
ANNAPOLIS      FOG       44  42  93 SE7       29.84F VSB 1/4
ANDREWS AFB    CLOUDY    49  48  98 S7        29.83S
PHILADELPHIA   CLOUDY    46  44  93 SW6       29.84F FOG
HENDERSON NC   FOG       51  50  98 S5        29.83F VSB 1
GREENSBORO     CLOUDY    55  55 100 SE5       29.79F FOG
ROCKY MOUNT    FOG       53  53 100 SE3       29.84F VSB 1
$$

VAZ100-212000-
MARINE

STATION/POSITION TIME  TEMP    WIND        PRES    WAVE   SWELL
                       AIR SEA DIR/SP/G            HT/PER HT/PER
                 (UTC) (F)     (DEG/KT/KT) (MB)    (FT/S) (FT/S)
CAPE MAY NJ      1848   45 42  200/  3/  4   N/A
LEWES DE         1848      41  190/  3/  4   N/A
OCEAN-CITY-INLET 1848      43  190/  4/  6   N/A
WACHAPREAGUE VA  1848   47 47  200/  6/  9   N/A
THOMAS POINT MD  1900   43 40  150/  8/  8   N/A
GOOSES REEF MD   1850   43     190/  8/  8 1011.4F
COVE POINT MD    1848   42     190/  8/  9   N/A
SOLOMONS ISLAND  1842   43 41  100/  5/  6   N/A
BISHOPS HEAD MD  1848   44 44  140/  5/  8   N/A
PINEY POINT MD   1842          120/  4/  4   N/A
POTOMAC MD       1850   43     160/  6/  6 1010.1F
CAMBRIDGE MD     1848   47 40  190/  4/  6   N/A
LEWISETTA VA     1848   45 45   90/  3/  3   N/A
RAPPAHANNOCK LGT 1842          200/  6/  7   N/A
STINGRAY PT      1850   44     170/  6/  8 1011.6F
YORK RVR RNG VA  1848   45     140/  7/  8   N/A
YORKTOWN VA      1848   46 43   60/  5/  6   N/A
JAMESTOWN VA     1850   48     100/  4/  6   N/A
DOMINION TERM VA 1848   49     110/  3/  4   N/A
KIPTOPEKE VA     1842      44  190/  8/  8   N/A
CHES BAY BRIDGE  1848   48 43  110/  2/  2   N/A
CAPE HENRY VA    1848   49     130/  6/  7   N/A
WILLOUBY STN VA  1848   46      20/  2/  3   N/A
S CRANEY ISL VA  1848   50     160/  3/  5   N/A
CAPE HENRY BUOY  1842      48                N/A     2/11   2/11
OFFSHORE WE BUOY 1851      49                N/A     3/11   2/11
64NM E OF VA BCH 1850   56 56  270/  6/  6 1011.0F   3/11   3/11
DUCK PIER NC     1848   50 45  120/  4/  4   N/A
44100 DUCK FRF   1835      48                N/A     3/10   2/11
44056 DUCK FRF   1830      47                N/A     3/12   2/12
OREGON INLET NC  1842   53 49  140/  2/  3   N/A
HATTERAS NC      1848      55  360/  5/  6   N/A
DIAMOND SHLS NC  1850   68 75  140/ 10/ 10 1010.1F   4/11   3/11
CAPE LOOKOUT NC  1800   64      80/  1/  2 1010.9F
$$



USA.gov is the U.S. government's official web portal to all federal, state and local government web resources and services.